GW5557 Weather Reports


time (UTC)temp
C
wind
direction
speed
KPH
gust
KPH
rain 1hr
cm
rain 24hr
cm
rain mn
cm
humidity
%
barometer
mb
20260906040121 28 14 1.6 4.8 0.00 0.00 0.00 73 1000.1
20260906035121 29 40 0.0 4.8 0.00 0.00 0.00 73 1000.1
20260906034121 29 4 3.2 6.4 0.00 0.00 0.00 72 1000.1
20260906033121 29 45 0.0 3.2 0.00 0.00 0.00 72 1000.0
20260906032121 30 18 0.0 4.8 0.00 0.00 0.00 70 999.9
20260906031122 30 33 1.6 6.4 0.00 0.00 0.00 70 999.8
20260906030122 30 35 3.2 8.0 0.00 0.00 0.00 69 999.7
20260906025144 30 39 1.6 4.8 0.00 0.00 0.00 69 999.7
20260906024122 30 180 0.0 0.0 0.00 0.00 0.00 68 999.5
20260906023121 30 19 0.0 3.2 0.00 0.00 0.00 67 999.4
20260906022122 30 23 0.0 3.2 0.00 0.00 0.00 67 999.2
20260906021122 30 315 0.0 0.0 0.00 0.00 0.00 66 999.2
20260906020121 30 45 0.0 0.0 0.00 0.00 0.00 65 999.0
20260906015122 30 23 0.0 0.0 0.00 0.00 0.00 65 999.0
20260906014122 31 45 0.0 0.0 0.00 0.00 0.00 62 998.8
20260906013122 31 45 0.0 0.0 0.00 0.00 0.00 62 998.7
20260906012122 31 314 1.6 6.4 0.00 0.00 0.00 61 998.7
20260906011121 31 352 1.6 4.8 0.00 0.00 0.00 59 998.4
20260906010121 31 360 0.0 0.0 0.00 0.00 0.00 57 998.4
20260906005121 33 68 0.0 0.0 0.00 0.00 0.00 53 998.4
20260906004143 33 68 0.0 0.0 0.00 0.00 0.00 53 998.5
20260906003123 33 23 0.0 0.0 0.00 0.00 0.00 53 998.2
20260906002121 33 23 0.0 0.0 0.00 0.00 0.00 52 998.2
20260906001123 33 45 0.0 0.0 0.00 0.00 0.00 51 998.2
20260906000122 34 45 0.0 0.0 0.00 0.00 0.00 51 998.2
20260905235121 34 23 0.0 4.8 0.00 0.00 0.00 51 998.2
20260905234122 34 113 0.0 3.2 0.00 0.00 0.00 51 998.2
20260905233122 34 28 3.2 8.0 0.00 0.00 0.00 52 998.4
20260905232122 34 6 4.8 9.7 0.00 0.00 0.00 51 998.4
20260905231123 35 16 6.4 14.5 0.00 0.00 0.00 48 998.4
20260905230122 35 22 6.4 9.7 0.00 0.00 0.00 47 998.4
20260905225122 35 352 6.4 8.0 0.00 0.00 0.00 46 998.4
20260905224122 36 5 8.0 14.5 0.00 0.00 0.00 46 998.2
20260905223143 36 348 6.4 11.3 0.00 0.00 0.00 46 998.2
20260905222122 37 11 4.8 9.7 0.00 0.00 0.00 44 998.2
20260905221121 38 340 3.2 8.0 0.00 0.00 0.00 42 998.2
20260905220144 38 332 8.0 12.9 0.00 0.00 0.00 40 998.1
20260905215122 39 323 6.4 12.9 0.00 0.00 0.00 38 998.1
20260905214123 39 335 8.0 12.9 0.00 0.00 0.00 39 998.1
20260905213122 38 350 9.7 12.9 0.00 0.00 0.00 39 998.1
20260905212122 38 344 9.7 14.5 0.00 0.00 0.00 40 998.4
20260905211143 38 355 9.7 12.9 0.00 0.00 0.00 41 998.6
20260905210122 37 3 8.0 12.9 0.00 0.00 0.00 42 998.4
20260905205122 38 360 0.0 0.0 0.00 0.00 0.00 39 998.4
20260905204143 38 346 4.8 9.7 0.00 0.00 0.00 39 998.6
20260905203122 38 16 6.4 9.7 0.00 0.00 0.00 39 998.6
20260905202122 40 351 8.0 11.3 0.00 0.00 0.00 37 998.8
20260905201122 41 331 8.0 11.3 0.00 0.00 0.00 36 998.7
20260905200122 41 356 4.8 11.3 0.00 0.00 0.00 35 998.9
20260905195122 40 301 6.4 16.1 0.00 0.00 0.00 36 998.9
20260905194122 40 312 6.4 11.3 0.00 0.00 0.00 38 999.1
20260905193122 40 335 4.8 9.7 0.00 0.00 0.00 38 999.2
20260905192122 40 345 8.0 12.9 0.00 0.00 0.00 40 999.4
20260905191123 40 313 6.4 8.0 0.00 0.00 0.00 39 999.4
20260905190122 40 34 3.2 8.0 0.00 0.00 0.00 40 999.7
20260905185122 40 351 1.6 9.7 0.00 0.00 0.00 41 999.7
20260905184123 40 333 1.6 8.0 0.00 0.00 0.00 42 999.9
20260905183143 40 23 3.2 8.0 0.00 0.00 0.00 42 1000.0
20260905182122 39 2 3.2 8.0 0.00 0.00 0.00 43 1000.1
20260905181122 38 208 1.6 3.2 0.00 0.00 0.00 45 1000.2
20260905180122 37 45 0.0 0.0 0.00 0.00 0.00 46 1000.1
20260905175122 37 45 0.0 0.0 0.00 0.00 0.00 46 1000.1
20260905174122 37 113 0.0 4.8 0.00 0.00 0.00 46 1000.2
20260905173122 37 293 0.0 0.0 0.00 0.00 0.00 47 1000.4
20260905172122 37 293 0.0 0.0 0.00 0.00 0.00 47 1000.4
20260905171122 37 293 0.0 0.0 0.00 0.00 0.00 47 1000.6
20260905170122 37 143 1.6 6.4 0.00 0.00 0.00 47 1000.9
20260905165122 37 327 1.6 6.4 0.00 0.00 0.00 48 1000.9
20260905164121 36 314 3.2 8.0 0.00 0.00 0.00 49 1000.9
20260905163123 36 270 0.0 0.0 0.00 0.00 0.00 50 1001.0
20260905162121 36 270 0.0 0.0 0.00 0.00 0.00 50 1001.1
20260905161122 36 285 3.2 9.7 0.00 0.00 0.00 50 1001.0
20260905160121 35 288 4.8 9.7 0.00 0.00 0.00 52 1001.2
20260905155121 35 9 3.2 9.7 0.00 0.00 0.00 52 1001.2
20260905154123 33 225 0.0 0.0 0.00 0.00 0.00 56 1001.2
20260905153122 33 225 0.0 0.0 0.00 0.00 0.00 56 1001.2
20260905152122 33 225 0.0 4.8 0.00 0.00 0.00 56 1001.2
20260905151122 33 282 4.8 8.0 0.00 0.00 0.00 56 1001.2
20260905150121 34 303 4.8 8.0 0.00 0.00 0.00 55 1001.1
20260905145121 33 230 4.8 8.0 0.00 0.00 0.00 57 1001.1
20260905144121 32 248 4.8 9.7 0.00 0.00 0.00 58 1001.2
20260905143121 32 294 4.8 8.0 0.00 0.00 0.00 58 1001.1
20260905142121 32 249 3.2 8.0 0.00 0.00 0.00 60 1001.1
20260905141122 31 269 3.2 6.4 0.00 0.00 0.00 62 1001.1
20260905140124 31 256 3.2 8.0 0.00 0.00 0.00 62 1001.1
20260905135123 32 291 3.2 6.4 0.00 0.00 0.00 61 1001.1
20260905134121 31 247 0.0 6.4 0.00 0.00 0.00 63 1001.0
20260905133121 31 203 0.0 0.0 0.00 0.00 0.00 62 1000.9
20260905132121 30 248 0.0 0.0 0.00 0.00 0.00 65 1000.9
20260905131121 31 315 0.0 0.0 0.00 0.00 0.00 65 1000.8
20260905130142 30 315 0.0 0.0 0.00 0.00 0.00 68 1000.7
20260905125121 30 113 0.0 0.0 0.00 0.00 0.00 70 1000.7
20260905124144 28 23 0.0 0.0 0.00 0.00 0.00 74 1000.7
20260905123124 26 113 0.0 0.0 0.00 0.00 0.00 81 1000.5
20260905122121 26 113 0.0 0.0 0.00 0.00 0.00 81 1000.5
20260905121121 26 23 0.0 0.0 0.00 0.00 0.00 80 1000.4
20260905120121 26 135 0.0 0.0 0.00 0.00 0.00 80 1000.2
20260905115121 26 23 0.0 0.0 0.00 0.00 0.00 79 1000.2
20260905114121 26 225 0.0 0.0 0.00 0.00 0.00 80 1000.0
20260905113142 26 180 0.0 0.0 0.00 0.00 0.00 82 1000.0
20260905112142 25 135 0.0 0.0 0.00 0.00 0.00 82 1000.0
20260905111124 26 180 0.0 0.0 0.00 0.00 0.00 81 999.9
20260905110124 26 45 0.0 0.0 0.00 0.00 0.00 81 999.7
20260905105124 26 158 0.0 0.0 0.00 0.00 0.00 80 999.7
20260905104122 26 158 0.0 0.0 0.00 0.00 0.00 80 999.8
20260905103121 26 248 0.0 0.0 0.00 0.00 0.00 80 999.9
20260905102124 26 180 0.0 0.0 0.00 0.00 0.00 81 1000.0
20260905101121 26 158 0.0 0.0 0.00 0.00 0.00 81 999.9
20260905100122 26 158 0.0 0.0 0.00 0.00 0.00 80 999.9
20260905095143 26 158 0.0 0.0 0.00 0.00 0.00 80 999.9
20260905094124 26 23 0.0 0.0 0.00 0.00 0.00 80 999.9
20260905093124 26 158 0.0 0.0 0.00 0.00 0.00 79 999.9
20260905092121 26 158 0.0 0.0 0.00 0.00 0.00 79 1000.0
20260905091121 26 113 0.0 0.0 0.00 0.00 0.00 79 1000.0
20260905090121 26 45 0.0 0.0 0.00 0.00 0.00 79 1000.0
20260905085121 26 158 0.0 0.0 0.00 0.00 0.00 77 1000.0
20260905084144 26 90 0.0 0.0 0.00 0.00 0.00 77 1000.1
20260905083123 27 203 0.0 0.0 0.00 0.00 0.00 76 1000.0
20260905082124 27 180 0.0 0.0 0.00 0.00 0.00 76 1000.0
20260905081121 27 203 0.0 0.0 0.00 0.00 0.00 76 1000.2
20260905080121 27 23 0.0 0.0 0.00 0.00 0.00 76 1000.2
20260905075121 27 158 0.0 0.0 0.00 0.00 0.00 75 1000.2
20260905074121 27 158 0.0 0.0 0.00 0.00 0.00 75 1000.4
20260905073121 27 90 0.0 0.0 0.00 0.00 0.00 74 1000.5
20260905072124 27 180 0.0 0.0 0.00 0.00 0.00 73 1000.4
20260905071145 27 360 0.0 0.0 0.00 0.00 0.00 73 1000.4
20260905070124 27 135 0.0 0.0 0.00 0.00 0.00 73 1000.4
20260905065121 27 180 0.0 0.0 0.00 0.00 0.00 73 1000.4
20260905064121 28 135 0.0 0.0 0.00 0.00 0.00 72 1000.4
20260905063121 28 45 0.0 0.0 0.00 0.00 0.00 72 1000.2
20260905062121 28 158 0.0 0.0 0.00 0.00 0.00 71 1000.5
20260905061142 28 158 0.0 0.0 0.00 0.00 0.00 70 1000.6
20260905060124 28 135 0.0 0.0 0.00 0.00 0.00 69 1000.5
20260905055124 29 45 0.0 0.0 0.00 0.00 0.00 68 1000.5
20260905054123 30 113 0.0 0.0 0.00 0.00 0.00 66 1000.7
20260905053142 30 203 0.0 0.0 0.00 0.00 0.00 65 1000.5
20260905052121 30 158 0.0 0.0 0.00 0.00 0.00 65 1000.4
20260905051121 30 203 0.0 0.0 0.00 0.00 0.00 64 1000.4
20260905050121 30 225 0.0 3.2 0.00 0.00 0.00 64 1000.4
20260905045121 30 198 0.0 6.4 0.00 0.00 0.00 63 1000.4
20260905044121 31 155 1.6 4.8 0.00 0.00 0.00 62 1000.2
20260905043145 31 153 1.6 6.4 0.00 0.00 0.00 62 1000.2
20260905042123 31 167 3.2 8.0 0.00 0.00 0.00 62 1000.4
20260905041121 31 189 0.0 6.4 0.00 0.00 0.00 62 1000.2